Find Starlink 31506

NORAD ID: 59259 Int'l Des: 2024-050 Owner: SPXS Country: US Constellation: starlink operational
LEOCIRCULAR

Live Position

Loading 3D Globe...

About Starlink 31506

Description loading...

Upcoming Passes

Passes for default location (London). Set your location on the main map for personalized predictions.

Altitude History

Loading altitude history...

Two-Line Element Set

1 59259U 24050F 26139.45911228 .00001739 00000-0 70863-4 0 9992
2 59259 53.1604 212.2820 0001262 88.0225 272.0920 15.30186940121388
Epoch: May 19, 2026 • Age: 20 hours

Current Status

Altitude 475.2 km
Velocity 7.63 km/s
Sub-Earth Point 11.09°N, 133.11°W
Launch Date Mar 19, 2024
Age 2.1 years
Type internet

Technical Details

Classification Payload
Mass 730.00 kg
Dry Mass 700.00 kg
Total Mass 730.00 kg
Length 0.30 m
Diameter 4.10 m
Span 29.00 m
Shape Box + pan
Manufacturer SPXS
Bus Type Starlink V2M
Phase Status In Orbit
Owner/State SPXS/US

Most Searched